Location: 相模原市立博物館
(35.5593°N, 139.3931°E)
Time: 05:07:40
(UTC+09:00)

X-37B - Pass Details

Date: 26 October 2021
Orbit: 330 x 341 km, 45.0° (Epoch: 20 November)

Event Time Altitude Azimuth Distance (km) Brightness Sun altitude
Rises 18:12:33 0° 303° (WNW) 2,124 5.2 -16.6°
Reaches altitude 10° 18:14:35 10° 307° (NW) 1,283 3.9 -17.0°
Enters shadow 18:17:23 62° 21° (NNE) 385 0.3 -17.6°
